Probability
0 0 0 0 0 0 0 0 0 0 0 0 0 0 0 1 3 5 6 8 10 13 19 30 47 70 89 98 99 100 100 100 100 100 100 98 90 78 65 55 49 42 38 39
0 0 0 0 0 0 0 0 0 0 0 0 0 0 1 2 4 6 7 10 14 20 29 42 56 73 90 98 100 100 100 100 100 100 97 91 81 68 57 47 40 34 27 25
0 0 0 0 0 0 0 0 0 0 0 0 0 0 1 3 5 7 12 19 26 35 46 58 68 79 90 97 100 100 100 100 99 96 91 81 68 57 48 39 29 21 14 11
0 0 0 0 0 0 0 0 0 0 0 0 0 0 1 3 6 11 23 37 48 55 64 73 79 85 91 95 99 100 99 98 95 91 85 75 64 52 41 29 19 12 7 4
0 0 0 0 0 0 0 0 0 0 0 0 0 0 1 4 10 23 44 61 70 74 77 81 85 88 90 93 95 96 95 92 89 86 81 72 59 44 30 18 10 5 3 1
0 0 0 0 0 0 0 0 0 0 0 0 0 0 6 19 34 52 69 80 82 81 77 76 79 81 83 85 87 86 84 80 76 73 68 57 44 30 17 9 5 2 1 0
0 0 0 0 0 0 0 0 0 0 0 0 0 2 18 48 71 81 85 84 79 72 64 61 61 64 66 68 68 67 64 59 53 48 41 33 25 17 10 5 2 0 0 0
0 0 0 0 0 0 0 0 0 0 0 0 1 11 39 73 91 92 84 75 65 54 45 40 39 39 40 41 43 43 41 35 30 25 20 15 12 9 6 3 1 0 0 0
0 0 0 0 0 0 0 0 0 0 0 0 4 24 58 83 89 85 74 61 48 34 24 19 18 18 18 19 20 22 21 17 14 12 10 8 6 5 3 2 1 0 0 0
0 0 0 0 0 0 0 0 0 0 0 0 4 25 58 79 81 71 58 42 27 15 8 5 5 6 7 6 6 7 8 7 6 5 4 4 4 2 1 1 0 0 0 0
0 0 0 0 0 0 0 0 0 0 0 0 4 20 50 74 73 56 37 21 9 3 1 1 1 1 2 1 1 1 1 2 3 3 2 1 1 0 0 0 0 0 0 0
0 0 0 0 0 0 0 0 0 0 0 0 4 23 57 78 69 45 23 8 1 0 0 0 0 0 0 0 0 0 0 1 2 2 1 0 0 0 0 0 0 0 0 0
0 0 0 0 0 0 0 0 0 0 0 0 4 27 62 78 62 35 14 4 0 0 0 0 0 0 0 0 0 0 0 0 1 1 1 0 0 0 0 0 0 0 0 0
0 0 0 0 0 0 0 0 0 0 0 0 5 26 53 63 47 24 8 2 1 0 0 0 0 0 0 0 0 0 0 0 0 0 0 0 0 0 0 0 0 0 0 0
0 0 0 0 0 0 0 1 1 0 1 2 9 25 42 44 31 13 3 1 1 0 0 0 0 0 0 0 0 0 0 0 0 0 0 0 0 0 0 0 0 0 0 0
0 0 0 0 0 0 1 2 2 2 3 6 13 24 31 28 17 6 2 1 0 0 0 0 0 0 0 0 0 0 0 0 0 0 0 0 0 0 0 0 0 0 0 0
0 0 0 0 0 0 1 2 2 3 4 8 13 17 17 13 7 2 1 1 0 0 0 0 0 0 0 0 0 0 0 0 0 0 0 0 0 0 0 0 0 0 0 0
0 0 0 0 0 0 0 1 1 3 5 7 8 7 5 3 2 1 1 1 0 0 0 0 0 0 0 0 0 0 0 0 0 0 0 0 0 0 0 0 0 0 0 0
0 0 0 0 0 0 0 0 1 2 3 3 3 1 0 0 0 0 0 0 0 0 0 0 0 0 0 0 0 0 0 0 0 0 0 0 0 0 0 0 0 0 0 0
0 0 0 0 0 0 0 0 0 1 1 1 0 0 0 0 0 0 0 0 0 0 0 0 0 0 0 0 0 0 0 0 0 0 0 0 0 0 0 0 0 0 0 0
0 0 0 0 0 0 0 0 0 0 0 0 0 0 0 0 0 0 0 0 0 0 0 0 0 0 0 0 0 0 0 0 0 0 0 0 0 0 0 0 0 0 0 0
0 0 0 0 0 0 0 0 0 0 0 0 0 0 0 0 0 0 0 0 0 0 0 0 0 0 0 0 0 0 0 0 0 0 0 0 0 0 0 0 0 0 0 0
0 0 0 0 0 0 0 0 0 0 0 0 0 0 0 0 0 0 0 0 0 0 0 0 0 0 0 0 0 0 0 0 0 0 0 0 0 0 0 0 0 0 0 0
0 0 0 0 0 0 0 0 0 0 0 0 0 0 0 0 0 0 0 0 0 0 0 0 0 0 0 0 0 0 0 0 0 0 0 0 0 0 0 0 0 0 0 0
0 0 0 0 0 0 0 0 0 0 0 0 0 0 0 0 0 0 0 0 0 0 0 0 0 0 0 0 0 0 0 0 0 0 0 0 0 0 0 0 0 0 0 0
0 0 0 0 0 0 0 0 0 0 0 0 0 0 0 0 0 0 0 0 0 0 0 0 0 0 0 0 0 0 0 0 0 0 0 0 0 0 0 0 0 0 0 0
Wind_Speed
13 12 14 16 17 19 19 16 17 17 17 20 18 17 15 10 10 10 8 8 7 7 6 5 6 11 14 14 14 12 11 11 10 8 8 7 6 6 6 6 7 6 6 6
14 17 16 16 16 18 19 18 16 14 14 15 14 16 15 12 10 6 5 2 1 2 4 4 4 7 12 13 13 13 11 11 10 8 6 5 7 6 6 5 6 6 6 6
19 14 17 16 15 15 15 15 15 12 9 8 7 13 15 14 10 8 5 1 3 5 6 6 5 4 5 10 13 13 12 11 10 9 8 8 6 5 4 5 4 5 6 6
18 17 14 15 16 14 12 14 15 15 10 8 12 12 16 15 13 10 7 3 4 8 9 11 12 11 7 3 8 11 12 11 10 11 10 12 8 6 5 5 5 7 7 7
15 16 15 13 13 13 13 13 14 15 13 12 12 14 14 16 18 14 6 7 11 13 15 15 15 14 13 11 7 9 11 11 10 9 10 9 8 7 7 8 9 8 8 8
15 14 14 13 12 12 12 14 14 13 12 16 15 15 15 8 10 9 12 15 15 15 15 14 14 14 13 13 12 12 13 12 10 9 8 9 11 11 11 10 9 8 6 6
12 14 13 11 12 14 13 12 9 11 12 15 15 16 10 7 17 18 18 16 15 14 14 13 14 14 13 13 13 13 14 13 11 11 10 10 11 11 11 10 9 8 6 6
12 12 13 12 13 11 13 15 12 10 11 13 19 18 6 16 19 19 18 16 15 14 13 13 13 12 12 13 13 13 14 14 12 12 11 10 10 9 9 10 9 8 7 7
6 10 14 14 13 15 13 14 16 16 18 15 12 8 14 16 17 17 17 16 15 13 13 12 12 12 12 13 13 13 14 14 13 13 13 12 12 11 11 10 10 8 7 7
8 7 8 12 12 15 15 13 9 12 13 15 13 7 11 16 16 16 15 15 14 13 12 12 11 11 11 11 12 13 13 13 13 12 11 11 12 11 10 10 10 9 8 7
6 6 5 7 11 12 13 14 13 10 12 13 12 3 6 15 16 16 15 14 13 12 11 10 9 10 10 11 11 12 12 13 13 13 12 12 11 11 11 10 10 8 7 6
5 5 7 8 8 10 11 13 12 10 12 12 10 2 11 16 17 18 16 14 12 12 11 10 9 9 10 11 11 12 12 12 12 12 12 12 11 11 11 10 9 7 6 5
9 6 7 7 7 6 7 8 10 9 8 10 11 2 11 16 16 16 16 14 12 11 10 9 9 9 10 10 11 11 11 12 12 12 12 11 11 10 10 8 7 6 5 4
5 7 7 3 5 7 10 11 10 8 7 9 8 3 8 12 14 14 14 13 12 11 10 10 9 9 9 10 10 11 11 11 11 12 12 11 10 9 8 8 6 6 5 5
6 8 8 5 6 5 4 8 10 10 8 6 3 5 5 9 12 13 12 12 12 12 11 11 10 9 9 9 10 11 11 10 11 11 11 10 9 9 8 7 7 6 5 5
5 8 11 9 5 5 2 2 5 6 6 7 7 9 10 12 12 11 11 11 12 12 12 11 10 10 10 10 10 11 10 10 10 10 10 10 9 8 7 6 5 5 5 5
7 7 8 10 10 5 2 8 7 8 12 10 8 8 12 13 11 9 9 11 11 11 11 11 10 10 9 9 9 9 9 9 9 10 9 8 7 7 5 4 4 4 4 4
6 7 6 7 7 3 7 9 9 10 15 14 13 13 14 14 13 13 11 12 12 11 11 10 9 9 8 8 8 8 8 8 8 8 7 6 5 5 3 4 4 4 3 3
3 4 6 5 4 4 7 10 10 7 10 11 11 13 15 15 15 13 12 12 12 10 10 8 7 7 7 7 7 7 7 7 7 7 6 4 3 3 3 4 3 3 2 2
2 2 5 6 6 4 5 7 7 3 6 9 9 8 8 6 7 6 8 11 11 10 8 8 7 7 6 6 6 7 7 7 6 5 4 3 2 3 4 4 3 2 2 2
6 4 4 5 3 6 9 11 8 3 5 7 10 10 9 8 9 10 10 10 10 9 9 7 7 6 6 5 5 6 6 5 5 5 4 3 3 3 4 3 2 2 2 2
7 7 6 6 4 5 12 9 9 7 8 10 11 13 15 15 15 13 11 10 10 9 8 7 7 6 5 5 5 5 5 4 4 4 4 4 2 2 4 2 1 1 2 2
4 6 5 5 5 6 9 10 8 7 8 8 9 12 14 15 14 13 11 10 9 8 7 7 7 7 6 5 5 5 4 4 3 4 3 2 2 2 1 0 0 1 1 2
5 4 2 4 7 8 9 9 8 7 6 6 8 11 13 14 14 12 10 9 9 8 7 7 7 7 5 4 4 3 4 3 3 3 2 2 2 2 1 1 1 1 2 4
5 4 3 3 6 8 9 8 7 6 5 6 7 10 12 14 13 12 10 9 8 7 7 6 6 6 6 5 4 4 3 2 2 1 1 2 2 2 2 2 1 3 5 4
5 5 4 4 5 4 6 6 5 4 5 6 8 11 13 13 13 12 10 8 8 7 7 7 6 6 6 5 5 4 3 2 1 0 2 2 1 2 2 1 3 6 5 7
Wind_Direction
202 216 220 224 227 246 257 252 237 230 210 200 217 231 239 211 209 212 206 212 196 194 173 167 158 161 155 151 154 159 167 157 156 159 161 158 140 120 110 106 111 109 110 108
205 221 231 234 232 236 257 271 266 237 207 194 211 232 240 235 208 214 235 211 89 73 65 71 116 147 151 153 156 160 163 162 164 160 151 137 122 115 113 106 95 96 102 102
224 217 224 242 244 238 246 260 268 262 194 178 228 246 248 246 225 197 207 226 41 37 36 40 49 90 142 158 162 167 165 161 161 142 125 119 109 109 108 108 93 81 89 94
230 237 227 228 241 243 245 252 267 277 259 214 203 236 237 238 234 215 195 138 68 43 38 34 33 37 40 93 149 147 147 146 142 134 142 146 147 141 126 113 97 85 79 85
223 227 233 233 235 240 245 248 248 261 269 266 236 238 242 223 222 213 162 104 73 57 48 41 36 31 32 36 73 115 118 117 123 128 139 136 128 116 110 104 97 86 77 76
235 228 230 235 235 241 244 250 242 237 249 247 246 252 253 255 236 156 111 84 72 65 57 47 40 37 38 42 55 80 93 95 99 110 118 121 121 118 115 108 103 92 85 83
233 236 235 235 230 224 229 238 227 216 228 242 235 239 239 77 76 97 97 86 74 66 61 53 46 44 45 48 60 72 84 85 87 90 93 101 108 110 110 109 105 104 100 95
210 224 222 221 232 232 214 234 241 237 229 234 224 224 170 107 98 98 97 92 82 72 64 58 53 51 54 56 62 72 79 82 83 84 85 86 89 93 97 100 105 105 102 98
249 227 209 210 220 242 229 225 247 266 281 284 262 170 113 118 115 111 107 98 88 80 72 65 60 59 61 63 65 72 78 80 80 83 85 82 84 90 97 101 100 99 102 105
299 285 217 201 210 227 246 241 238 249 265 276 278 179 165 152 135 122 111 103 96 87 78 71 66 66 67 69 71 72 77 81 82 83 86 91 93 97 99 98 96 99 100 101
281 290 271 212 211 229 230 242 252 260 261 263 272 332 81 141 134 123 112 105 99 91 85 80 78 78 80 79 79 80 80 82 83 85 88 92 94 95 96 98 100 101 102 104
332 302 292 278 257 243 243 246 248 252 263 273 279 65 95 119 121 118 113 107 101 98 94 92 90 89 89 90 88 88 88 88 89 91 91 90 91 93 94 95 96 98 100 101
343 306 288 289 287 285 283 274 269 268 266 272 276 93 92 105 110 113 114 111 108 105 103 98 93 91 92 92 94 95 96 97 99 99 97 94 93 92 94 95 96 98 98 93
293 292 292 276 270 298 297 313 318 285 263 269 286 99 110 108 115 116 117 118 115 110 107 102 94 89 89 91 94 97 98 100 101 99 97 94 92 93 92 91 86 81 76 73
327 299 308 282 213 227 295 323 329 323 319 314 9 67 101 105 112 114 116 119 117 113 108 102 97 92 88 86 86 88 91 92 94 96 95 92 90 87 84 80 73 66 55 57
332 309 308 293 252 232 219 294 308 316 354 13 53 67 73 85 93 105 116 120 115 111 106 100 92 86 82 80 83 82 82 85 90 93 93 93 91 87 83 79 74 66 55 42
328 330 312 300 306 282 63 24 21 27 28 26 49 81 95 86 82 93 107 109 108 107 101 92 85 77 74 76 81 84 84 86 89 90 91 93 94 92 87 88 81 69 56 48
329 327 302 294 303 323 58 23 26 47 46 44 69 83 88 88 76 64 75 92 95 92 89 86 86 86 82 82 86 90 92 94 98 97 97 99 99 97 93 85 73 65 52 40
359 324 305 306 310 84 39 7 357 17 54 48 80 102 111 111 86 60 59 80 92 96 100 99 99 101 101 101 106 108 105 104 104 103 101 96 95 96 91 80 69 61 49 24
321 277 288 317 330 48 29 343 319 308 71 44 76 105 132 127 90 84 83 91 94 95 99 104 104 103 101 103 108 110 112 111 112 114 113 108 92 82 79 68 54 46 15 9
333 319 328 332 356 71 4 357 346 23 63 56 72 81 87 78 100 117 110 101 101 103 105 108 109 106 105 109 111 112 115 120 130 133 134 128 108 109 100 82 56 13 2 360
339 348 5 2 18 41 9 28 48 79 92 84 85 94 99 104 111 116 114 111 111 111 113 115 111 106 107 112 115 116 123 141 152 141 127 110 95 82 101 102 72 358 330 312
31 24 357 35 69 84 62 73 83 90 91 94 103 116 121 122 122 120 118 117 118 119 118 116 113 111 110 116 125 129 142 152 136 118 110 108 101 79 74 358 303 317 326 333
93 77 23 76 103 96 83 82 78 83 94 102 116 127 130 126 126 125 125 125 124 123 123 125 124 120 122 131 129 120 121 123 123 128 143 174 165 176 183 283 327 14 13 10
355 348 9 76 101 102 83 73 72 77 92 110 122 130 131 130 131 132 131 131 129 128 128 130 124 121 119 117 109 105 108 113 123 150 203 229 207 193 221 209 47 36 64 59
48 34 20 62 54 67 87 74 64 83 102 117 121 122 127 131 131 131 129 129 128 127 125 120 117 111 107 107 102 95 97 95 81 333 277 269 235 234 264 175 130 70 104 114